GW6683 Weather Reports


time (UTC)temp
F
wind
direction
speed
knots
gust
knots
rain 1hr
in
rain 24hr
in
rain mn
in
humidity
%
barometer
mb
20260509222626 85 73 0.0 0.0 0.00 0.05 0.05 86 1013.6
20260509222121 85 73 1.7 2.6 0.00 0.05 0.05 86 1013.6
20260509221618 85 73 1.7 2.6 0.00 0.05 0.05 86 1013.6
20260509221114 85 80 2.6 4.3 0.00 0.05 0.05 85 1013.6
20260509220610 85 6 0.0 0.0 0.00 0.05 0.05 86 1013.6
20260509220107 85 6 0.0 0.0 0.00 0.05 0.05 85 1013.6
20260509215601 86 50 0.9 3.5 0.00 0.05 0.05 84 1013.6
20260509215059 85 117 0.0 0.0 0.00 0.05 0.05 85 1013.2
20260509214556 85 117 0.0 1.7 0.00 0.05 0.05 86 1013.2
20260509214053 85 117 0.0 0.0 0.00 0.05 0.05 86 1013.2
20260509213549 85 117 0.0 2.6 0.00 0.05 0.05 86 1013.2
20260509213046 85 117 0.0 0.0 0.00 0.05 0.05 85 1013.2
20260509212543 85 117 0.0 0.0 0.00 0.05 0.05 85 1013.2
20260509212040 84 117 0.0 0.0 0.00 0.05 0.05 87 1013.2
20260509211535 84 117 0.0 0.0 0.00 0.05 0.05 86 1013.2
20260509211032 84 117 0.9 2.6 0.00 0.05 0.05 88 1013.2
20260509210529 84 117 0.0 0.0 0.00 0.05 0.05 86 1013.2
20260509210026 83 117 0.0 0.0 0.00 0.05 0.05 87 1013.2
20260509205520 83 117 0.0 0.0 0.00 0.05 0.05 88 1012.9
20260509205016 82 117 0.0 0.0 0.00 0.05 0.05 90 1012.9
20260509204513 81 117 0.0 0.0 0.00 0.05 0.05 92 1012.9
20260509204009 81 117 0.0 1.7 0.00 0.05 0.05 93 1012.9
20260509203505 80 73 1.7 4.3 0.00 0.05 0.05 92 1012.9
20260509203003 80 75 0.9 2.6 0.00 0.05 0.05 94 1012.9
20260509202458 80 338 0.0 0.0 0.00 0.05 0.05 95 1012.9
20260509201953 80 338 0.0 0.0 0.00 0.05 0.05 96 1012.9
20260509201454 79 338 0.0 0.0 0.00 0.05 0.05 96 1012.5
20260509200951 79 338 0.0 0.0 0.00 0.05 0.05 96 1012.5
20260509200446 79 127 0.9 2.6 0.00 0.05 0.05 97 1012.5
20260509195943 78 127 0.0 0.0 0.00 0.05 0.05 98 1012.5
20260509195438 78 131 0.9 3.5 0.00 0.05 0.05 99 1012.5
20260509194938 77 83 0.0 0.0 0.00 0.05 0.05 100 1012.5
20260509194434 77 83 0.0 0.0 0.00 0.05 0.05 99 1012.2
20260509193931 77 83 1.7 1.7 0.00 0.05 0.05 100 1012.2
20260509193430 77 83 0.9 2.6 0.00 0.05 0.05 100 1012.5
20260509192927 77 83 0.0 0.0 0.00 0.05 0.05 100 1012.5
20260509192423 77 83 0.0 0.0 0.00 0.05 0.05 100 1012.5
20260509191918 76 83 0.0 0.0 0.00 0.05 0.05 100 1012.5
20260509191414 76 83 0.0 0.0 0.00 0.05 0.05 100 1012.2
20260509190910 76 83 0.0 0.0 0.00 0.05 0.05 100 1012.2
20260509190408 76 83 0.0 0.0 0.00 0.05 0.05 100 1012.2
20260509185905 76 83 0.0 0.0 0.00 0.05 0.05 100 1012.2
20260509185402 76 83 0.0 0.0 0.00 0.05 0.05 100 1011.9
20260509184859 77 83 0.0 0.0 0.00 0.05 0.05 99 1011.9
20260509184355 77 83 0.0 0.0 0.00 0.05 0.05 99 1011.9
20260509183853 77 83 0.0 0.0 0.00 0.05 0.05 100 1011.9
20260509183347 77 83 0.0 0.0 0.00 0.05 0.05 100 1011.9
20260509182843 77 83 0.0 0.0 0.00 0.05 0.05 100 1011.9
20260509182341 77 83 0.0 0.0 0.00 0.04 0.04 100 1011.9
20260509181838 77 83 0.0 0.0 0.00 0.04 0.04 100 1011.9
20260509181335 77 83 0.0 0.0 0.47 0.03 0.03 100 1011.9
20260509180833 76 83 0.0 0.0 0.00 0.02 0.02 100 1011.9
20260509180328 76 83 0.0 0.0 0.00 0.01 0.01 100 1011.9
20260509175825 76 83 0.9 1.7 0.00 0.01 0.01 100 1011.9
20260509175322 76 83 0.0 0.0 0.00 0.01 0.01 100 1011.9
20260509174818 76 83 0.0 0.0 0.00 0.01 0.01 100 1011.9
20260509174313 76 83 0.0 0.9 0.00 0.01 0.01 100 1011.9
20260509173810 76 83 0.0 0.0 0.00 0.01 0.01 100 1011.9
20260509173305 76 83 0.0 0.0 0.00 0.01 0.01 100 1011.9
20260509172801 76 83 0.0 0.0 0.00 0.01 0.01 100 1011.9
20260509172258 76 83 0.0 0.0 0.00 0.01 0.01 100 1011.9
20260509171754 76 83 0.0 0.0 0.00 0.01 0.01 100 1011.9
20260509171250 76 83 0.0 0.0 0.00 0.01 0.01 99 1011.9
20260509170747 76 83 0.0 0.0 0.00 0.01 0.01 99 1011.5
20260509170243 76 83 0.0 0.0 0.00 0.01 0.01 99 1011.5
20260509165742 77 83 0.0 0.0 0.00 0.01 0.01 99 1011.5
20260509165237 77 83 0.0 0.0 0.00 0.01 0.01 99 1011.5
20260509164733 77 83 0.0 0.0 0.00 0.01 0.01 99 1011.5
20260509164229 77 83 0.0 0.0 0.00 0.01 0.01 99 1011.5
20260509163726 77 83 0.0 0.0 0.00 0.01 0.01 99 1011.5
20260509163223 77 83 0.0 0.0 0.00 0.01 0.01 99 1011.5
20260509162720 77 83 0.0 0.0 0.00 0.01 0.01 99 1011.5
20260509162215 77 83 0.0 0.0 0.00 0.01 0.01 99 1011.5
20260509161711 77 83 0.0 0.0 0.00 0.01 0.01 99 1011.5
20260509161208 77 83 0.0 0.0 0.00 0.01 0.01 99 1011.5
20260509160703 77 83 0.0 1.7 0.00 0.01 0.01 99 1011.5
20260509160159 77 83 0.0 0.0 0.00 0.01 0.01 99 1011.5
20260509155655 77 83 0.0 0.0 0.00 0.01 0.01 99 1011.5
20260509155151 77 83 0.0 0.0 0.00 0.01 0.01 99 1011.9
20260509154647 77 83 0.0 0.0 0.00 0.01 0.01 99 1011.9
20260509154145 77 83 0.0 0.0 0.00 0.01 0.01 98 1011.9
20260509153641 77 83 0.0 1.7 0.00 0.01 0.01 98 1011.9
20260509153138 77 83 0.0 0.0 0.00 0.01 0.01 98 1011.9
20260509152634 78 83 0.0 0.0 0.00 0.01 0.01 98 1011.9
20260509152131 78 83 0.0 0.0 0.00 0.01 0.01 98 1011.9
20260509151628 78 83 0.0 0.0 0.00 0.01 0.01 98 1012.2
20260509151125 78 83 0.0 0.0 0.00 0.01 0.01 97 1012.2
20260509150623 78 83 0.0 0.0 0.00 0.01 0.01 97 1012.2
20260509150121 78 83 0.0 0.9 0.00 0.01 0.01 97 1012.2
20260509145616 78 83 0.0 0.0 0.00 0.01 0.01 96 1012.2
20260509145112 78 83 0.0 0.0 0.00 0.01 0.01 96 1012.2
20260509144609 78 66 1.7 5.2 0.00 0.01 0.01 96 1012.5
20260509144106 78 58 0.0 0.0 0.00 0.00 0.00 96 1012.5
20260509143603 78 58 0.0 0.0 0.00 0.00 0.00 96 1012.5
20260509143101 78 58 0.0 2.6 0.00 0.00 0.00 96 1012.5
20260509142556 78 57 0.9 2.6 0.00 0.00 0.00 96 1012.5
20260509142052 78 57 0.0 0.0 0.00 0.00 0.00 96 1012.5
20260509141548 78 57 0.9 2.6 0.00 0.00 0.00 97 1012.5
20260509141045 78 90 0.0 1.7 0.00 0.00 0.00 97 1012.5
20260509140542 78 90 0.0 0.0 0.00 0.00 0.00 97 1012.9
20260509140040 78 85 0.0 1.7 0.00 0.00 0.00 96 1012.5
20260509135537 78 51 0.0 2.6 0.00 0.00 0.00 97 1012.9
20260509135035 78 51 0.0 1.7 0.00 0.00 0.00 97 1012.9
20260509134531 78 51 0.0 1.7 0.00 0.00 0.00 97 1012.9
20260509134029 78 51 0.0 0.0 0.00 0.00 0.00 97 1012.5
20260509133525 78 51 0.0 0.9 0.00 0.00 0.00 97 1012.9
20260509133024 78 51 0.0 0.0 0.00 0.00 0.00 97 1012.9
20260509132522 78 51 0.9 1.7 0.00 0.00 0.00 96 1012.9
20260509132020 78 51 0.9 2.6 0.00 0.00 0.00 97 1012.9
20260509131515 78 51 0.0 0.9 0.00 0.00 0.00 96 1012.9
20260509131013 78 51 0.9 2.6 0.00 0.00 0.00 96 1012.9
20260509130508 78 51 0.0 1.7 0.00 0.00 0.00 96 1012.9
20260509130005 78 51 0.0 0.0 0.00 1.80 1.80 96 1012.9
20260509125501 78 51 1.7 4.3 0.00 1.80 1.80 96 1013.2
20260509124957 78 51 0.9 1.7 0.00 1.80 1.80 97 1012.9
20260509124454 79 51 1.7 4.3 0.00 1.80 1.80 96 1012.9
20260509123952 78 65 1.7 5.2 0.00 1.80 1.80 97 1012.9
20260509123449 78 70 0.0 1.7 0.00 1.80 1.80 97 1012.9
20260509122945 78 70 0.0 0.0 0.00 1.80 1.80 96 1012.9
20260509122442 78 70 0.9 3.5 0.00 1.80 1.80 97 1012.9
20260509121939 78 70 0.0 0.9 0.00 1.80 1.80 96 1012.9
20260509121436 78 70 0.0 0.0 0.00 1.80 1.80 96 1012.9
20260509120934 78 41 0.0 1.7 0.00 1.80 1.80 96 1013.2
20260509120432 78 41 0.0 1.7 0.00 1.80 1.80 97 1013.2
20260509115929 78 41 0.0 0.0 0.00 1.80 1.80 96 1013.2
20260509115426 78 41 0.0 0.0 0.00 1.80 1.80 97 1012.9
20260509114924 78 100 0.0 0.0 0.00 1.80 1.80 98 1013.2
20260509114422 78 100 0.0 0.0 0.00 1.80 1.80 97 1013.2
20260509113921 78 100 0.0 0.0 0.00 1.80 1.80 97 1013.2
20260509113418 78 100 0.0 0.0 0.00 1.80 1.80 97 1013.2
20260509112915 79 100 0.0 1.7 0.00 1.80 1.80 97 1013.2
20260509112412 79 100 0.0 1.7 0.00 1.80 1.80 97 1013.2
20260509111909 79 100 0.0 1.7 0.00 1.80 1.80 97 1013.2
20260509111406 79 100 0.0 2.6 0.00 1.80 1.80 97 1012.9
20260509110904 79 100 0.0 0.0 0.00 1.80 1.80 97 1012.9
20260509110359 79 100 0.0 0.0 0.00 1.80 1.80 97 1012.9
20260509105858 79 100 0.0 0.0 0.00 1.80 1.80 97 1012.9
20260509105356 79 100 0.9 1.7 0.00 1.80 1.80 97 1012.9
20260509104852 79 100 0.0 1.7 0.47 1.79 1.79 97 1012.9
20260509104349 79 100 0.0 0.0 0.00 1.79 1.79 97 1012.9
20260509103847 79 100 0.0 0.9 0.00 1.79 1.79 97 1012.9
20260509103344 79 100 0.0 0.0 0.00 1.79 1.79 97 1012.9
20260509102843 79 100 0.0 0.0 0.00 1.79 1.79 97 1012.5
20260509102339 79 100 0.9 3.5 0.00 1.79 1.79 97 1012.9
20260509101835 79 100 0.0 1.7 0.00 1.79 1.79 97 1012.9
20260509101331 79 100 0.0 0.0 0.00 1.79 1.79 97 1012.9
20260509100830 79 100 0.9 3.5 0.00 1.79 1.79 97 1012.9
20260509100326 79 50 0.9 1.7 0.00 1.79 1.79 97 1012.9
20260509095823 79 49 3.5 7.0 0.00 1.79 1.79 97 1012.5
20260509095320 79 67 0.0 0.0 0.00 1.79 1.79 97 1012.5
20260509094817 79 67 1.7 3.5 0.00 1.79 1.79 97 1012.5
20260509094314 79 61 2.6 5.2 0.00 1.79 1.79 97 1012.5
20260509093812 79 46 0.9 3.5 0.00 1.79 1.79 97 1012.5
20260509093309 79 49 0.0 1.7 0.00 1.79 1.79 98 1012.5
20260509092807 79 41 0.0 1.7 0.00 1.79 1.79 98 1012.5
20260509092306 79 66 0.9 1.7 0.00 1.78 1.78 98 1012.5
20260509091803 79 17 1.7 2.6 0.00 1.78 1.78 98 1012.5
20260509091259 79 17 0.0 0.0 0.00 1.78 1.78 98 1012.5
20260509090756 79 17 0.0 0.0 0.00 1.77 1.77 97 1012.5
20260509090253 79 17 0.0 0.0 0.00 1.77 1.77 98 1012.5
20260509085751 79 17 0.0 0.0 0.00 1.77 1.77 97 1012.2
20260509085248 79 17 0.0 0.0 0.00 1.77 1.77 97 1012.2
20260509084744 79 17 0.0 1.7 0.00 1.77 1.77 97 1012.2
20260509084241 79 91 0.0 1.7 0.00 1.76 1.76 97 1011.9
20260509083739 79 91 0.0 0.0 0.00 1.76 1.76 97 1011.9
20260509083236 79 81 3.5 7.0 0.00 1.76 1.76 97 1011.9
20260509082732 79 65 0.0 0.0 0.00 1.75 1.75 97 1011.9
20260509082229 79 52 1.7 4.3 0.00 1.75 1.75 97 1011.9
20260509081726 79 62 0.9 2.6 0.47 1.74 1.74 97 1011.9
20260509081223 79 105 0.0 1.7 0.00 1.74 1.74 98 1011.9
20260509080721 79 62 0.0 1.7 0.00 1.74 1.74 97 1011.9
20260509080219 79 62 0.9 2.6 0.00 1.73 1.73 97 1011.9
20260509075717 79 61 0.0 1.7 0.00 1.72 1.72 97 1011.9
20260509075214 80 78 0.0 3.5 0.00 1.72 1.72 97 1011.9
20260509074711 79 70 4.3 8.7 0.47 1.71 1.71 97 1011.5
20260509074208 79 56 3.5 6.1 0.00 1.71 1.71 97 1011.9
20260509073704 79 69 0.9 2.6 0.00 1.71 1.71 97 1011.5
20260509073201 79 59 1.7 4.3 0.00 1.70 1.70 97 1011.5
20260509072658 79 41 4.3 7.8 0.00 1.69 1.69 98 1011.5
20260509072155 79 68 1.7 4.3 0.00 1.68 1.68 97 1011.5
20260509071651 79 76 1.7 3.5 0.47 1.67 1.67 97 1011.5
20260509071148 79 68 2.6 6.1 0.00 1.62 1.62 97 1011.5
20260509070645 79 49 0.0 1.7 0.00 1.61 1.61 97 1011.5
20260509070141 79 54 1.7 3.5 0.47 1.60 1.60 97 1011.2
20260509065637 79 90 1.7 4.3 0.00 1.60 1.60 97 1011.5
20260509065133 79 118 0.9 1.7 0.00 1.60 1.60 97 1011.2
20260509064631 79 58 0.9 1.7 0.00 1.60 1.60 97 1011.2
20260509064129 80 62 2.6 5.2 0.00 1.60 1.60 98 1011.2
20260509063625 80 64 3.5 6.1 0.00 1.59 1.59 98 1011.2
20260509063122 80 70 0.0 2.6 0.00 1.59 1.59 97 1011.2
20260509062619 79 82 1.7 4.3 0.00 1.58 1.58 97 1011.2
20260509062116 80 61 2.6 7.0 0.00 1.54 1.54 97 1011.2
20260509061613 80 73 2.6 5.2 0.47 1.52 1.52 97 1010.8
20260509061111 80 51 3.5 6.1 0.00 1.52 1.52 98 1010.8
20260509060608 80 71 1.7 4.3 0.47 1.51 1.51 98 1010.8
20260509060103 80 83 0.0 0.0 0.47 1.47 1.47 98 1010.8
20260509055559 80 83 0.0 1.7 0.00 1.47 1.47 98 1010.8
20260509055055 80 83 0.0 1.7 0.00 1.46 1.46 97 1010.8
20260509054552 80 78 2.6 4.3 0.47 1.43 1.43 97 1011.2
20260509054050 80 71 0.0 0.0 0.00 1.41 1.41 98 1010.8
20260509053549 80 71 0.0 1.7 0.00 1.41 1.41 97 1010.8
20260509053045 80 80 0.0 0.0 0.00 1.39 1.39 97 1010.8
20260509052543 80 80 0.0 1.7 0.00 1.38 1.38 97 1010.8
20260509052041 80 100 0.0 2.6 0.00 1.37 1.37 97 1010.8
20260509051538 80 107 0.0 0.9 0.00 1.36 1.36 97 1010.8
20260509051035 80 107 0.0 0.0 0.47 1.34 1.34 97 1010.8
20260509050532 80 107 0.0 1.7 0.00 1.33 1.33 97 1010.8
20260509050028 80 63 1.7 3.5 0.00 1.32 1.32 96 1010.5
20260509045526 80 46 0.9 2.6 0.47 1.30 1.30 96 1010.5
20260509045023 80 46 0.9 1.7 0.00 1.29 1.29 96 1010.5
20260509044520 80 46 1.7 2.6 0.00 1.29 1.29 96 1010.5
20260509044018 80 46 0.0 0.0 0.00 1.29 1.29 96 1010.5
20260509043514 80 46 1.7 3.5 0.00 1.28 1.28 95 1010.5
20260509043010 80 46 1.7 2.6 0.00 1.27 1.27 95 1010.5
20260509042506 80 46 0.0 0.0 0.00 1.26 1.26 94 1010.5
20260509042002 80 46 0.0 0.0 0.00 1.25 1.25 95 1010.5
20260509041459 80 46 0.0 0.0 0.00 1.25 1.25 96 1010.5
20260509040957 80 46 0.0 0.0 0.00 1.25 1.25 96 1010.5
20260509040455 80 46 0.0 0.9 0.00 1.25 1.25 94 1010.5
20260509035951 80 46 0.0 0.0 0.00 1.25 1.25 96 1010.5
20260509035448 80 46 0.0 0.0 0.00 1.25 1.25 98 1010.8
20260509034945 80 46 1.7 3.5 0.00 1.25 1.25 97 1010.5
20260509034443 80 20 1.7 5.2 0.00 1.25 1.25 98 1010.5
20260509033939 80 20 1.7 1.7 0.00 1.25 1.25 99 1010.8
20260509033437 80 20 0.0 0.9 0.00 1.25 1.25 98 1010.8
20260509032933 80 20 0.0 0.0 0.00 1.24 1.24 98 1010.8
20260509032431 80 20 0.0 0.0 0.00 1.24 1.24 98 1011.2
20260509031928 79 20 0.0 1.7 0.00 1.24 1.24 99 1011.2
20260509031425 79 20 0.0 1.7 0.00 1.24 1.24 99 1010.8
20260509030923 79 20 0.0 0.0 0.00 1.24 1.24 99 1011.2
20260509030421 79 20 0.0 0.0 0.00 1.23 1.23 98 1011.2
20260509025918 79 20 0.0 0.0 0.00 1.23 1.23 99 1011.2
20260509025413 79 20 0.0 0.9 0.00 1.23 1.23 98 1011.2
20260509024908 79 20 0.0 0.0 0.00 1.22 1.22 99 1011.2
20260509024405 79 20 0.0 0.0 0.47 1.21 1.21 99 1011.2
20260509023902 79 20 0.0 0.0 0.00 1.21 1.21 99 1011.5
20260509023359 78 20 0.0 0.0 0.00 1.21 1.21 99 1011.5
20260509022855 78 20 0.9 1.7 0.00 1.20 1.20 99 1011.5
20260509022353 78 20 0.0 0.0 0.00 1.20 1.20 99 1011.5
20260509021850 78 20 0.0 0.0 0.00 1.19 1.19 99 1011.5
20260509021347 78 20 0.0 0.0 0.00 1.17 1.17 99 1011.5
20260509020844 78 20 0.9 2.6 0.00 1.17 1.17 99 1011.5
20260509020343 78 20 0.0 0.0 0.00 1.17 1.17 99 1011.5
20260509015840 78 20 0.9 2.6 0.00 1.16 1.16 99 1011.9
20260509015338 78 45 1.7 2.6 0.00 1.15 1.15 99 1011.9
20260509014834 78 334 1.7 5.2 0.00 1.13 1.13 99 1011.9
20260509014331 78 43 0.9 2.6 0.00 1.11 1.11 98 1012.2
20260509013828 78 284 0.0 2.6 0.47 1.10 1.10 99 1012.2
20260509013324 78 278 0.0 0.0 0.47 1.07 1.07 99 1012.2
20260509012820 78 278 0.0 0.0 0.00 1.07 1.07 99 1012.5
20260509012317 78 278 0.0 0.0 0.00 1.06 1.06 99 1012.5
20260509011815 78 278 0.0 0.0 0.94 1.03 1.03 99 1012.5
20260509011312 78 278 0.9 2.6 0.47 0.97 0.97 99 1012.5
20260509010810 78 125 0.0 0.0 1.89 0.87 0.87 98 1012.9
20260509010307 78 125 0.0 0.9 0.94 0.76 0.76 98 1012.9
20260509005804 78 225 1.7 3.5 0.47 0.73 0.73 98 1012.9
20260509005306 79 227 2.6 3.5 0.00 0.68 0.68 98 1012.9
20260509004801 79 227 0.9 4.3 2.36 0.54 0.54 97 1013.2
20260509004258 80 227 3.5 4.3 1.89 0.42 0.42 96 1013.2
20260509003756 81 346 0.0 0.0 1.42 0.28 0.28 97 1012.9
20260509003253 80 346 0.0 0.0 0.00 0.27 0.27 96 1012.9
20260509002750 81 346 0.0 0.0 0.00 0.27 0.27 95 1012.5
20260509002248 81 346 3.5 4.3 0.00 0.27 0.27 93 1012.9
20260509001746 82 94 0.9 1.7 0.47 0.20 0.20 92 1012.9
20260509001241 84 94 0.0 1.7 0.47 0.15 0.15 92 1012.9
20260509000739 84 94 0.0 0.0 0.00 0.15 0.15 91 1012.9
20260509000236 83 94 0.0 0.0 0.00 0.15 0.15 90 1012.9
20260508235733 84 94 0.0 0.0 0.00 0.15 0.15 89 1012.9
20260508235230 83 94 0.0 0.0 0.00 0.15 0.15 89 1012.9
20260508234727 84 94 0.0 1.7 0.00 0.14 0.14 91 1012.9
20260508234223 83 94 0.0 1.7 0.00 0.14 0.14 90 1012.9
20260508233723 84 94 0.9 1.7 0.00 0.14 0.14 91 1012.9
20260508233221 84 94 0.9 1.7 0.00 0.14 0.14 90 1012.9
20260508232718 84 94 0.0 0.9 0.00 0.14 0.14 89 1013.2
20260508232214 84 94 0.0 0.0 0.00 0.14 0.14 88 1013.2
20260508231712 84 94 0.0 0.0 0.00 0.14 0.14 88 1013.2
20260508231209 84 94 1.7 6.1 0.00 0.14 0.14 86 1013.2
20260508230706 84 94 0.0 0.0 0.00 0.14 0.14 87 1013.6
20260508230202 85 47 1.7 5.2 0.00 0.14 0.14 85 1013.6
20260508225700 86 88 0.0 2.6 0.00 0.14 0.14 84 1013.6
20260508225155 86 80 0.9 2.6 0.00 0.14 0.14 85 1013.6
20260508224654 86 58 0.9 2.6 0.00 0.14 0.14 88 1013.2
20260508224151 85 58 0.0 0.0 0.00 0.14 0.14 88 1013.2
20260508223649 85 58 0.0 0.0 0.00 0.14 0.14 89 1013.2
20260508223146 85 58 0.0 0.0 0.00 0.14 0.14 90 1012.9